CST,Max TemperatureF,Mean TemperatureF,Min TemperatureF,Max Dew PointF,MeanDew PointF,Min DewpointF,Max Humidity, Mean Humidity, Min Humidity, Max Sea Level PressureIn, Mean Sea Level PressureIn, Min Sea Level PressureIn, Max VisibilityMiles, Mean VisibilityMiles, Min VisibilityMiles, Max Wind SpeedMPH, Mean Wind SpeedMPH, Max Gust SpeedMPH,PrecipitationIn, CloudCover, Events, WindDirDegrees
2013-1-1,15,4,-7,9,-3,-15,79,68,56,30.27,30.20,30.09,10,10,10,10,7,,0.00,4,,264
2013-1-2,26,14,3,25,8,-4,93,79,72,30.09,30.03,29.97,10,8,3,17,8,25,0.00,4,Snow,210
2013-1-3,24,15,6,19,6,1,85,77,67,30.29,30.22,30.09,10,10,8,18,14,25,0.00,5,Snow,283
2013-1-4,26,18,10,18,13,7,93,78,64,30.20,30.14,30.11,10,10,4,16,10,21,0.00,0,,235
2013-1-5,32,22,12,27,16,9,93,84,74,30.14,29.99,29.88,10,8,3,18,10,26,0.00,2,,214
2013-1-6,21,14,8,12,8,1,86,76,63,30.24,30.17,30.01,10,10,8,18,11,24,0.00,2,Snow,266
2013-1-7,35,25,15,27,21,12,100,78,64,30.16,30.03,29.97,10,9,0,23,13,32,0.00,0,Fog,205
2013-1-8,37,26,15,30,24,12,93,86,75,30.00,29.93,29.84,10,7,0,20,10,28,0.00,2,Fog-Rain-Snow,171
2013-1-9,37,32,26,28,25,23,93,80,65,30.40,30.26,29.99,10,10,10,23,13,30,0.00,1,Rain,244
2013-1-10,39,32,26,34,27,21,100,81,49,30.39,30.09,29.74,10,7,0,22,12,26,0.11,4,Fog-Rain,133
2013-1-11,44,38,33,43,38,34,100,97,93,29.74,29.57,29.46,10,2,0,16,10,23,0.00,7,Fog-Rain,161
2013-1-12,41,26,12,39,13,3,93,71,62,30.06,29.89,29.47,10,10,5,30,18,41,0.00,7,Rain-Snow,274
2013-1-13,12,8,5,3,0,-4,79,68,61,30.27,30.11,29.99,10,10,8,17,13,22,0.00,5,Rain-Snow,300
2013-1-14,24,14,5,12,6,0,79,71,54,30.41,30.36,30.27,10,10,10,14,6,18,0.00,1,,232
2013-1-15,32,21,10,14,11,5,79,67,44,30.34,30.20,29.98,10,10,10,16,10,22,0.00,0,,196
2013-1-16,41,30,19,34,22,10,93,76,63,30.18,29.91,29.79,10,9,1,22,14,28,0.00,5,Rain-Snow,266
2013-1-17,28,19,10,19,9,1,86,67,46,30.40,30.33,30.18,10,10,10,15,10,20,0.00,4,,300
2013-1-18,46,34,23,32,27,19,86,72,53,30.31,29.96,29.80,10,10,10,25,14,34,0.00,1,,206
2013-1-19,46,27,8,34,23,-2,93,72,53,30.18,29.89,29.75,10,10,10,38,14,52,0.00,4,Rain,276
2013-1-20,12,8,3,3,-2,-6,73,65,57,30.36,30.29,30.19,10,10,2,22,16,30,0.00,5,Snow,305
2013-1-21,5,-1,-7,-4,-12,-20,72,58,47,30.34,30.28,30.24,10,10,7,23,18,31,0.00,2,,303
2013-1-22,10,3,-4,-2,-9,-13,71,59,47,30.38,30.31,30.25,10,10,10,12,7,17,0.00,3,,279
2013-1-23,23,12,0,10,1,-15,73,60,47,30.52,30.24,30.14,10,10,6,28,13,36,0.00,5,Rain-Snow,289
2013-1-24,17,8,-2,1,-10,-15,56,47,35,30.62,30.45,30.19,10,10,10,20,12,25,0.00,3,,109
2013-1-25,26,16,5,14,5,-2,73,61,39,30.26,30.10,30.00,10,10,2,31,14,43,0.00,3,Rain-Snow,273
2013-1-26,26,14,1,12,3,-6,78,59,40,30.34,30.26,30.17,10,10,10,22,9,25,0.00,4,,146
2013-1-27,32,29,26,32,24,12,100,82,55,30.17,29.94,29.75,10,4,0,21,14,60,0.14,8,Rain-Snow,142
2013-1-28,41,34,30,39,32,30,100,98,93,29.92,29.81,29.59,2,0,0,18,6,22,0.00,8,Fog-Rain-Snow,122
2013-1-29,46,39,32,46,35,28,100,92,81,29.64,29.57,29.50,10,6,0,25,13,33,0.11,8,Fog-Rain,331
2013-1-30,30,21,10,27,15,3,93,79,67,29.75,29.59,29.48,10,4,0,30,23,38,0.00,8,Rain-Snow,327
2013-1-31,10,2,-5,1,-8,-15,78,67,60,30.26,29.99,29.76,10,8,3,26,19,34,0.00,6,Rain-Snow,302